Temp
55 50 44 45 49 49 46 44 43 46 49 45 44 44 48 45 42 41 40 39 41 43 48 46 47 46 45 44 44 44 44 44 42 40 39 38 39 39 40 41 43 44 43 44
51 45 51 54 53 50 47 43 43 47 49 46 43 46 47 45 45 46 46 43 43 43 42 43 45 44 44 45 44 43 44 44 43 41 40 40 39 39 40 41 42 43 43 44
46 50 56 54 49 48 44 41 41 43 47 45 43 42 41 42 42 46 46 45 46 46 46 42 43 43 42 42 42 44 44 44 43 43 41 40 39 39 39 40 40 42 43 44
47 53 52 49 48 47 40 46 47 46 41 37 43 37 42 40 42 42 42 41 47 45 46 46 47 44 43 46 43 44 45 44 44 43 40 39 38 37 38 39 40 41 43 43
47 47 47 47 47 48 45 48 44 43 38 35 37 35 42 39 46 46 43 43 46 46 47 47 47 49 48 48 44 45 44 44 44 42 41 39 37 37 38 38 38 39 41 41
47 51 49 47 50 49 49 44 42 38 36 33 36 36 40 42 46 48 45 45 47 46 45 48 49 49 48 44 44 42 43 44 43 42 41 39 38 37 36 37 37 38 39 40
45 46 48 50 45 47 46 38 33 35 32 35 37 35 43 48 49 49 51 51 47 45 44 45 44 43 44 41 43 43 43 44 43 42 41 40 38 37 37 37 37 37 37 38
40 40 44 48 43 40 40 39 34 32 30 33 37 34 46 48 49 49 50 49 47 45 45 45 45 46 46 45 44 45 43 44 43 42 42 41 40 38 38 38 37 37 37 38
40 41 45 47 46 45 39 37 40 35 29 29 33 40 49 47 48 48 50 49 50 47 45 46 45 46 46 46 45 45 44 45 44 43 42 40 39 38 38 38 38 38 38 41
45 40 43 45 46 44 40 45 37 33 30 30 32 34 40 46 50 49 49 50 50 48 47 46 45 46 46 47 47 46 46 46 45 44 43 43 41 39 39 38 38 38 39 39
46 44 38 42 41 41 39 37 36 36 32 30 27 37 44 48 47 49 49 50 50 49 49 48 48 47 47 46 45 45 45 45 43 43 43 42 40 40 39 39 39 39 39 40
48 43 38 43 42 44 40 41 39 29 33 27 23 31 48 48 49 49 51 52 51 50 51 48 47 44 43 45 44 44 45 45 45 45 43 42 41 39 39 39 39 39 39 40
49 41 36 37 37 40 38 40 39 35 31 28 26 36 49 44 48 50 51 51 50 50 50 48 45 43 46 45 45 45 45 45 45 43 42 41 40 39 39 39 39 40 39 39
53 41 42 38 41 41 38 40 39 39 25 30 32 45 50 54 50 52 50 50 49 49 49 47 45 43 46 46 46 45 45 46 45 44 42 42 41 41 41 40 39 39 39 39
48 42 40 43 44 43 44 45 39 35 40 39 50 40 47 54 49 50 50 50 49 49 48 48 47 44 43 43 45 46 46 45 45 43 43 43 43 41 40 39 39 39 39 40
43 41 39 40 45 44 43 46 44 42 42 40 45 45 57 57 49 47 48 48 48 48 48 48 48 46 43 44 46 46 46 45 45 44 44 44 42 41 40 40 39 38 38 38
42 40 36 33 39 39 38 48 46 43 42 46 43 52 57 49 49 49 50 48 48 48 48 48 48 47 45 44 47 45 46 45 44 45 45 44 43 42 41 41 39 39 37 37
41 38 32 29 35 30 48 47 48 46 51 46 45 50 52 53 47 49 49 48 49 49 48 48 47 46 46 44 44 45 45 44 44 44 44 44 43 42 42 39 40 39 36 37
46 38 30 31 31 40 49 52 45 43 48 49 48 52 50 45 44 47 49 48 48 47 48 47 46 45 45 44 44 43 42 44 44 43 44 44 44 43 41 40 40 39 36 36
43 42 38 26 28 30 44 47 48 47 40 52 48 49 45 45 41 45 46 49 49 48 48 48 48 47 45 45 42 41 41 40 42 45 45 45 44 44 42 42 40 39 37 40
33 29 34 36 31 36 48 48 48 38 44 48 48 47 45 45 48 49 50 49 48 48 49 48 45 46 46 44 42 41 41 40 45 46 45 44 44 44 44 42 40 38 38 38
36 31 28 28 27 34 48 46 45 50 45 48 48 48 46 47 47 48 50 50 49 49 49 48 47 47 46 45 42 42 40 44 43 43 43 44 43 44 44 40 39 38 38 36
38 43 36 38 41 50 47 52 53 49 52 50 49 50 49 48 48 50 49 49 49 49 48 48 47 47 46 45 43 43 44 44 43 41 41 41 43 43 44 40 39 37 37 38
40 44 40 41 46 49 49 53 49 50 51 51 51 51 48 49 49 49 49 48 47 48 48 47 47 46 46 46 45 44 44 44 42 41 40 39 40 40 42 43 42 39 38 38
46 44 42 40 46 48 51 51 55 52 51 51 51 51 50 48 49 49 48 48 48 48 48 47 46 46 45 45 45 45 45 43 41 41 40 39 40 42 40 42 42 42 43 43
44 44 44 48 51 54 58 59 54 51 52 53 51 48 49 49 50 48 48 49 48 48 47 46 44 44 44 43 43 44 44 42 41 40 40 41 40 38 40 39 39 46 47 47
MSLP
1019.01 1019.68 1020.38 1020.52 1020.61 1020.63 1020.87 1021.18 1021.39 1021.21 1021.57 1022.32 1022.38 1022.42 1022.49 1023.21 1024.34 1024.86 1025.18 1025.46 1025.58 1025.34 1025.06 1025.48 1025.76 1026.16 1026.61 1027.06 1027.39 1027.61 1027.97 1028.26 1028.71 1029.06 1029.33 1029.39 1029.32 1029.25 1029.28 1029.27 1028.96 1029.00 1029.01 1028.94
1019.59 1020.04 1019.91 1019.95 1020.28 1020.56 1020.79 1021.14 1021.33 1021.12 1021.45 1022.12 1021.86 1021.03 1020.86 1021.50 1022.00 1022.74 1023.57 1024.35 1024.49 1024.80 1024.99 1025.21 1025.64 1026.01 1026.33 1026.59 1026.98 1027.33 1027.56 1027.92 1028.27 1028.45 1028.66 1028.78 1028.94 1028.96 1028.93 1028.84 1028.83 1028.72 1028.79 1028.74
1019.87 1020.01 1019.83 1019.97 1020.31 1020.58 1020.93 1021.29 1021.49 1021.88 1021.59 1021.65 1021.64 1020.44 1019.91 1020.45 1021.11 1021.84 1022.40 1022.78 1023.29 1023.74 1024.20 1024.62 1025.06 1025.48 1025.92 1026.30 1026.63 1026.83 1026.99 1027.26 1027.55 1027.80 1028.19 1028.49 1028.71 1028.90 1028.94 1028.85 1028.76 1028.53 1028.49 1028.42
1020.04 1020.03 1020.03 1020.20 1020.53 1020.81 1021.19 1021.42 1021.90 1022.18 1022.47 1022.54 1022.19 1021.71 1019.74 1019.86 1020.39 1020.91 1021.36 1021.83 1022.01 1022.45 1022.98 1023.54 1024.04 1024.53 1024.96 1025.21 1025.80 1026.09 1026.34 1026.63 1026.89 1027.24 1027.67 1027.96 1028.30 1028.64 1028.55 1028.47 1028.38 1028.30 1028.24 1028.18
1020.14 1020.20 1020.30 1020.59 1020.88 1021.13 1021.58 1021.83 1022.22 1022.48 1022.99 1023.47 1023.00 1022.76 1019.19 1019.18 1019.21 1019.39 1019.86 1020.55 1020.87 1021.21 1021.75 1022.18 1022.70 1023.11 1023.53 1024.35 1024.86 1025.31 1025.73 1026.10 1026.27 1026.70 1026.96 1027.34 1027.83 1027.97 1028.11 1028.29 1028.29 1028.18 1028.07 1028.01
1020.55 1020.66 1020.80 1020.91 1021.16 1021.45 1021.87 1022.34 1022.81 1023.30 1023.73 1024.07 1023.03 1022.85 1019.77 1018.77 1018.37 1018.34 1018.70 1019.31 1019.76 1020.36 1020.86 1021.34 1021.61 1022.24 1022.97 1023.73 1024.29 1024.84 1025.24 1025.48 1025.83 1026.18 1026.48 1026.72 1027.13 1027.50 1027.97 1028.06 1028.13 1027.98 1027.96 1027.84
1020.83 1021.03 1021.14 1021.28 1021.65 1021.95 1022.34 1023.10 1023.68 1024.22 1024.42 1023.95 1022.93 1022.63 1019.22 1017.56 1017.47 1017.69 1017.85 1018.25 1018.76 1019.48 1020.27 1020.85 1021.41 1021.84 1022.40 1022.99 1023.63 1024.19 1024.64 1024.92 1025.18 1025.60 1025.93 1026.09 1026.39 1026.81 1027.13 1027.35 1027.60 1027.70 1027.66 1027.52
1021.19 1021.39 1021.59 1021.78 1022.11 1022.46 1022.95 1023.59 1024.47 1025.06 1025.39 1024.45 1023.04 1021.40 1017.82 1017.00 1016.90 1017.06 1017.32 1017.56 1017.93 1018.62 1019.24 1019.80 1020.20 1020.78 1021.36 1021.88 1022.45 1023.18 1023.66 1024.11 1024.53 1024.95 1025.19 1025.51 1025.87 1026.23 1026.48 1026.70 1026.95 1027.05 1027.10 1026.98
1021.24 1021.52 1021.88 1022.00 1022.31 1022.81 1023.48 1023.99 1024.44 1025.05 1025.77 1025.55 1022.74 1020.44 1017.65 1016.62 1016.48 1016.72 1016.99 1017.33 1017.69 1018.20 1018.55 1018.90 1019.42 1019.83 1020.33 1020.85 1021.31 1021.72 1022.47 1023.08 1023.64 1024.00 1024.49 1024.90 1025.31 1025.70 1025.96 1026.18 1026.39 1026.52 1026.46 1026.34
1020.69 1021.46 1022.01 1022.37 1022.63 1023.22 1023.50 1024.15 1024.85 1025.61 1026.20 1025.63 1023.28 1021.49 1018.84 1016.85 1016.39 1016.38 1016.64 1017.04 1017.26 1017.83 1018.24 1018.58 1018.78 1018.98 1019.34 1019.73 1020.23 1020.93 1021.33 1021.78 1022.36 1023.06 1023.61 1024.06 1024.48 1024.91 1025.29 1025.66 1025.82 1025.93 1025.93 1025.95
1020.69 1021.50 1022.57 1022.79 1022.88 1023.12 1024.05 1024.51 1025.26 1025.91 1026.36 1025.93 1024.36 1021.07 1017.73 1017.00 1016.39 1016.40 1016.56 1016.78 1016.86 1017.20 1017.31 1017.46 1017.58 1017.92 1018.34 1018.91 1019.53 1020.01 1020.62 1021.22 1021.78 1022.21 1022.75 1023.25 1023.66 1024.10 1024.52 1024.85 1025.00 1025.12 1025.22 1025.33
1020.26 1021.28 1022.20 1022.34 1022.54 1022.84 1023.35 1023.93 1024.71 1026.01 1026.51 1026.33 1025.04 1020.31 1017.06 1016.66 1016.38 1016.32 1016.38 1016.51 1016.51 1016.58 1016.41 1016.55 1016.82 1017.33 1017.86 1018.22 1018.63 1019.05 1019.75 1020.32 1020.71 1021.33 1021.95 1022.38 1022.83 1023.24 1023.66 1023.96 1024.16 1024.38 1024.61 1024.63
1020.28 1021.31 1021.95 1022.05 1022.83 1022.89 1023.20 1023.56 1024.31 1025.34 1025.76 1025.50 1024.33 1019.55 1016.68 1016.47 1016.33 1016.24 1016.49 1016.44 1016.45 1016.27 1016.09 1016.26 1016.48 1016.68 1016.89 1017.28 1017.80 1018.24 1018.77 1019.25 1019.90 1020.57 1021.17 1021.73 1022.05 1022.51 1022.77 1023.02 1023.40 1023.74 1024.00 1024.09
1020.42 1021.42 1021.74 1021.69 1021.43 1021.61 1022.43 1022.63 1023.34 1024.16 1025.12 1023.96 1021.74 1018.53 1017.14 1016.02 1016.13 1015.78 1016.04 1016.16 1016.13 1016.06 1015.94 1015.80 1015.95 1015.94 1016.10 1016.39 1016.92 1017.47 1017.92 1018.42 1019.07 1019.78 1020.34 1020.72 1021.11 1021.50 1021.95 1022.23 1022.55 1022.97 1023.22 1023.48
1021.07 1021.64 1021.73 1021.29 1021.17 1021.34 1021.38 1021.51 1022.24 1022.75 1021.76 1021.63 1018.35 1017.49 1016.53 1015.33 1015.74 1015.72 1015.68 1015.64 1015.80 1015.75 1015.73 1015.34 1015.50 1015.60 1015.48 1015.77 1016.09 1016.62 1017.18 1017.65 1018.15 1018.88 1019.43 1019.62 1020.02 1020.50 1021.11 1021.61 1021.85 1022.06 1022.43 1022.75
1021.69 1021.73 1021.93 1021.56 1020.71 1020.94 1020.96 1019.76 1020.21 1020.53 1020.05 1019.27 1017.98 1015.71 1014.90 1014.77 1015.14 1015.21 1015.50 1015.64 1015.71 1015.65 1015.54 1015.10 1014.88 1015.07 1015.27 1015.28 1015.44 1015.68 1016.07 1016.49 1017.17 1017.87 1018.26 1018.77 1019.36 1019.81 1020.22 1020.73 1021.21 1021.56 1021.77 1022.02
1021.83 1022.35 1022.69 1021.73 1021.04 1020.65 1019.79 1017.12 1017.78 1018.12 1017.48 1016.82 1016.46 1013.95 1013.69 1014.17 1014.54 1014.69 1014.87 1015.12 1015.26 1015.31 1015.19 1015.06 1014.72 1014.40 1014.63 1014.85 1014.84 1015.05 1015.24 1015.81 1016.33 1016.90 1017.40 1017.93 1018.51 1019.07 1019.44 1019.84 1020.37 1020.83 1021.19 1021.47
1021.37 1022.47 1022.79 1022.48 1021.52 1019.66 1016.07 1015.18 1015.32 1016.08 1015.60 1015.41 1015.12 1013.83 1013.54 1013.59 1013.81 1013.94 1014.09 1014.34 1014.61 1014.64 1014.64 1014.81 1014.71 1014.17 1014.02 1014.11 1014.32 1014.72 1015.11 1015.36 1015.67 1015.92 1016.34 1016.93 1017.56 1018.09 1018.60 1019.19 1019.48 1019.85 1020.35 1020.71
1020.54 1021.95 1023.25 1022.92 1021.38 1017.97 1016.47 1014.51 1014.63 1015.10 1013.98 1013.77 1014.04 1013.15 1012.99 1013.39 1013.60 1013.26 1013.10 1013.58 1013.86 1014.21 1014.33 1014.30 1014.45 1014.25 1013.83 1013.93 1013.96 1014.18 1014.50 1015.05 1015.70 1015.58 1015.45 1015.68 1016.26 1017.06 1017.71 1018.17 1018.52 1018.88 1019.53 1019.88
1021.32 1021.56 1022.23 1023.08 1021.55 1018.23 1014.76 1013.66 1013.47 1014.06 1013.03 1012.08 1012.79 1012.80 1013.30 1013.52 1013.81 1013.16 1012.92 1013.12 1013.40 1013.31 1013.29 1013.46 1013.76 1013.77 1013.73 1013.50 1013.78 1014.30 1014.48 1014.60 1014.57 1014.52 1014.56 1014.83 1015.20 1015.70 1016.34 1016.84 1017.43 1017.80 1018.32 1018.68
1021.48 1022.45 1021.91 1021.58 1020.05 1016.19 1014.10 1013.64 1013.74 1013.90 1012.24 1011.62 1012.01 1012.45 1013.10 1013.51 1012.80 1012.39 1012.42 1012.63 1012.77 1013.09 1013.15 1013.24 1013.19 1013.34 1013.25 1013.24 1013.53 1013.99 1014.23 1014.11 1013.59 1013.86 1013.98 1014.26 1014.58 1014.81 1015.06 1015.63 1016.34 1016.88 1017.44 1017.93
1019.09 1020.57 1020.94 1020.76 1019.85 1015.92 1012.85 1013.78 1013.43 1011.46 1011.19 1011.33 1011.64 1011.91 1012.49 1012.33 1012.44 1012.47 1012.44 1012.47 1012.70 1012.90 1012.80 1012.93 1013.17 1013.13 1012.87 1012.88 1013.16 1013.56 1013.55 1012.83 1013.10 1013.26 1013.45 1013.53 1013.57 1013.96 1014.39 1014.95 1015.43 1015.94 1016.52 1017.05
1017.23 1015.80 1016.72 1016.71 1014.42 1012.42 1011.89 1011.04 1010.65 1010.67 1010.83 1011.03 1011.21 1011.41 1011.78 1012.17 1012.31 1012.03 1012.07 1012.22 1012.17 1012.21 1012.43 1012.39 1012.72 1013.01 1012.67 1012.48 1012.63 1012.85 1012.26 1012.34 1012.55 1012.81 1012.82 1012.94 1013.14 1013.33 1013.47 1013.99 1014.62 1015.27 1015.55 1015.96
1014.90 1014.48 1014.53 1014.58 1012.23 1011.51 1011.25 1010.58 1010.60 1010.51 1010.48 1010.28 1010.23 1010.45 1011.09 1011.53 1011.42 1011.75 1011.78 1011.80 1011.95 1011.96 1012.17 1012.16 1012.31 1012.43 1012.29 1012.15 1011.95 1011.82 1011.70 1011.88 1012.18 1012.23 1012.25 1012.36 1012.54 1012.64 1012.83 1013.11 1013.50 1013.97 1014.38 1014.78
1012.64 1013.10 1012.69 1011.74 1010.98 1010.63 1010.13 1009.98 1009.70 1009.60 1009.70 1009.91 1009.98 1010.14 1010.35 1010.76 1011.02 1011.06 1011.38 1011.57 1011.61 1011.66 1011.83 1012.09 1011.94 1011.90 1011.77 1011.78 1011.67 1011.28 1011.10 1011.20 1011.46 1011.66 1011.68 1011.82 1011.90 1011.88 1012.00 1012.07 1012.22 1012.51 1012.58 1012.80
1010.95 1010.64 1010.63 1008.84 1009.12 1008.80 1008.26 1008.13 1008.35 1009.05 1009.17 1008.91 1009.50 1009.84 1009.78 1010.13 1010.30 1010.68 1011.14 1011.12 1011.39 1011.70 1011.98 1012.12 1011.99 1011.86 1011.60 1011.42 1011.25 1011.15 1010.88 1010.72 1010.54 1010.74 1010.98 1011.08 1011.20 1011.34 1011.32 1011.39 1011.57 1011.70 1011.65 1011.87
Wind_Speed
3 6 1 3 5 4 2 3 4 4 1 3 7 12 12 11 9 10 10 10 12 15 10 8 9 8 7 7 8 8 8 7 4 2 2 0 3 2 2 4 4 4 3 3
6 1 2 1 1 1 2 3 6 4 2 5 6 17 13 12 16 19 17 14 15 9 8 8 8 8 9 11 10 8 8 8 6 3 3 3 3 3 2 2 4 4 5 4
4 1 1 2 3 3 1 2 3 4 6 2 7 9 3 2 2 9 11 9 11 15 14 10 10 12 8 9 10 10 9 9 7 7 3 1 1 1 1 2 3 4 6 5
1 3 1 1 1 2 2 0 2 4 5 4 5 7 6 1 5 8 11 12 15 14 10 10 13 12 14 15 9 9 10 9 8 8 5 7 5 5 4 3 3 4 4 5
4 1 1 1 0 0 4 2 1 1 2 4 4 3 10 3 6 8 11 14 15 14 15 15 16 17 15 13 13 11 10 10 9 8 8 6 6 4 2 2 4 4 4 5
1 1 1 1 2 2 1 1 5 4 3 3 3 3 9 3 4 6 3 9 13 13 12 13 13 11 10 8 9 9 11 11 9 9 9 9 9 7 4 4 4 4 3 4
2 0 1 1 1 2 5 6 5 5 5 6 1 1 12 7 5 5 6 8 9 9 9 11 11 11 10 12 12 10 12 12 11 11 10 10 9 8 8 7 5 5 4 3
3 4 2 2 1 2 2 5 6 4 2 6 3 7 8 4 5 6 7 6 5 8 9 12 14 13 14 14 14 14 13 13 11 12 12 9 8 6 6 6 5 4 4 4
4 3 1 1 1 2 2 1 3 4 2 2 4 9 11 4 6 5 7 6 7 7 9 12 10 12 13 13 16 17 15 14 12 13 10 9 7 8 7 7 6 5 5 5
4 2 1 0 2 3 1 4 3 3 2 5 6 7 7 5 6 7 6 9 8 6 7 8 9 12 12 13 13 14 15 17 15 13 11 10 9 8 7 6 7 7 6 6
5 3 1 1 5 7 2 1 3 3 5 5 3 9 8 6 2 6 7 7 8 8 9 10 11 10 11 10 11 14 14 14 12 12 11 10 9 8 7 7 7 7 6 7
5 6 4 7 1 2 3 6 6 6 5 2 5 11 5 9 6 4 8 7 7 7 9 8 9 9 10 12 12 14 13 13 13 12 10 11 9 8 8 9 8 7 7 6
7 2 2 5 2 3 4 5 4 5 3 6 5 9 1 4 6 7 7 9 9 9 9 8 6 9 12 12 13 13 13 14 12 10 11 9 10 9 10 9 8 7 7 7
4 2 7 8 6 5 4 6 6 7 4 5 10 16 13 14 9 10 8 8 9 9 9 8 7 9 10 10 12 12 12 12 11 11 11 12 11 11 10 9 8 8 7 7
4 6 6 7 6 3 5 7 9 11 10 11 20 15 13 16 8 8 7 7 8 10 9 8 7 8 7 8 10 10 11 11 11 12 12 13 10 9 8 8 8 8 7 7
1 4 5 5 6 8 7 11 12 15 10 13 17 28 17 18 7 8 9 7 9 9 9 9 7 7 7 9 10 10 12 13 12 13 14 11 9 9 10 9 9 7 7 7
7 6 4 7 2 3 7 19 16 10 10 12 16 25 17 8 9 7 9 8 8 8 8 9 8 7 6 8 8 12 12 9 12 13 12 10 10 11 10 9 8 9 9 7
8 6 4 4 2 8 11 2 5 12 17 10 10 16 14 14 4 7 7 6 7 8 6 7 7 7 6 5 7 6 6 10 11 12 12 10 11 11 9 8 10 9 6 9
5 6 1 4 7 9 13 10 8 9 15 9 15 19 10 2 2 7 7 7 4 6 6 5 6 5 5 6 6 7 7 7 8 11 12 12 12 12 10 11 11 9 6 6
6 4 6 3 5 9 8 3 5 6 10 9 8 12 5 6 2 6 4 5 5 4 3 5 6 3 5 5 2 5 6 7 11 12 13 11 12 13 12 12 11 7 6 9
5 0 10 9 8 10 9 5 5 4 9 4 6 6 8 6 7 4 6 5 4 3 5 4 3 5 5 3 3 6 6 10 11 8 7 9 10 12 12 10 8 7 9 6
11 10 6 2 3 15 8 6 10 9 3 3 5 6 9 7 5 6 8 7 7 7 5 3 4 6 5 2 4 5 8 9 7 7 8 10 11 10 8 10 8 7 8 8
6 11 10 14 12 4 9 7 10 3 6 7 6 7 9 8 8 8 7 9 9 7 5 3 4 7 6 4 5 6 8 5 6 6 8 9 8 9 9 10 9 6 8 8
5 5 5 2 8 15 9 11 5 8 9 6 8 8 9 9 9 9 7 7 7 6 7 3 4 7 8 5 5 7 7 5 6 7 8 7 8 8 9 8 7 8 8 8
6 10 8 8 8 9 9 10 13 11 10 8 7 8 12 9 7 9 7 7 7 6 4 3 5 6 9 6 8 7 6 5 7 7 6 7 7 9 8 9 9 10 10 12
8 10 9 12 8 11 12 11 9 12 13 16 12 8 8 10 11 6 7 6 4 5 3 4 5 5 7 6 7 8 6 6 7 7 6 7 7 6 7 6 6 17 16 20
Wind_Direction
9 60 221 233 196 202 249 271 283 258 176 197 235 260 261 202 215 221 219 220 224 224 225 211 203 195 182 185 179 189 175 192 154 160 152 248 222 210 233 235 243 230 242 234
22 257 212 232 214 316 303 307 298 292 128 184 294 273 241 183 213 208 210 217 224 227 217 214 206 190 191 189 193 184 190 179 192 167 189 179 182 213 205 218 240 231 243 243
153 275 354 42 26 18 317 256 297 255 320 214 313 294 318 203 241 209 222 217 222 219 219 213 203 203 195 196 193 189 191 187 188 192 153 135 46 347 312 247 248 240 233 237
211 329 49 38 59 130 303 248 334 330 27 284 18 285 306 331 257 224 224 216 221 212 211 210 208 202 199 208 191 191 190 189 193 185 179 186 186 200 218 205 214 244 240 251
253 120 35 315 289 321 231 37 16 358 45 15 347 68 270 357 293 251 230 227 225 218 209 207 205 207 207 194 195 196 192 195 192 186 190 190 200 207 209 215 236 250 264 249
254 352 55 148 102 75 17 70 37 56 69 13 271 131 288 246 235 312 293 235 226 217 212 218 211 203 205 192 187 186 194 203 196 193 197 198 200 202 203 216 228 240 250 254
339 247 322 73 78 44 66 47 335 347 15 227 332 74 246 266 261 246 284 291 237 216 206 209 203 197 193 187 192 191 196 207 198 198 202 205 204 199 206 208 210 220 234 236
149 323 162 2 107 151 88 134 151 270 274 278 314 240 253 223 280 259 266 274 258 213 205 208 207 202 204 199 192 194 195 207 198 201 210 208 204 204 209 207 205 223 219 228
153 280 80 72 112 114 172 163 178 105 28 20 252 288 308 288 285 280 293 317 290 249 220 219 210 205 203 198 198 194 194 205 200 204 206 208 204 205 211 216 213 221 226 237
200 328 175 183 109 35 126 159 75 15 260 277 294 283 244 329 333 329 282 271 284 288 258 234 217 210 207 206 201 197 198 199 201 200 203 208 206 205 209 208 218 222 232 232
139 113 242 84 200 179 110 254 56 121 153 199 289 270 214 232 289 301 298 278 275 274 253 239 227 215 207 198 192 196 197 198 199 198 201 202 203 204 204 212 217 220 222 228
186 145 221 221 178 150 174 200 157 127 231 227 142 267 224 236 263 275 267 280 279 269 271 249 225 201 199 202 192 195 197 200 204 202 198 205 204 198 204 216 218 217 224 226
185 205 6 336 27 357 227 203 144 105 87 207 138 261 274 272 271 264 274 298 290 291 298 287 249 216 213 206 199 198 197 205 202 191 196 204 206 204 212 213 212 214 219 228
91 142 173 203 211 138 207 191 178 145 129 217 220 266 290 283 276 288 282 279 293 294 295 290 275 237 224 208 201 201 203 200 195 195 199 207 208 210 212 211 205 209 213 222
134 219 186 259 229 213 239 214 182 194 209 195 272 240 244 267 273 254 258 277 301 303 313 305 297 274 225 202 196 200 205 195 191 195 203 215 209 202 200 207 212 209 209 220
115 246 160 267 251 208 252 246 214 221 238 250 261 275 261 279 252 269 264 269 282 293 304 305 301 296 246 218 212 198 199 199 186 197 211 210 200 198 205 209 211 211 216 215
159 158 126 251 275 323 269 241 223 207 214 220 236 252 280 257 247 250 258 236 255 284 294 302 305 302 269 234 208 207 206 179 188 202 210 202 199 207 210 205 200 213 217 209
154 144 139 234 53 241 243 68 207 213 252 220 276 264 256 253 240 234 223 211 250 279 281 300 299 307 294 248 218 219 185 192 196 201 205 201 198 208 204 198 210 211 196 212
169 129 185 189 208 300 304 274 174 176 259 195 227 255 255 185 189 281 214 202 237 264 276 267 283 286 301 300 251 198 185 187 205 215 209 200 194 204 198 206 212 207 192 206
95 62 158 141 209 236 230 258 137 135 277 237 197 248 174 146 150 254 186 199 241 253 243 269 295 290 311 318 236 208 216 198 213 213 215 205 198 202 202 210 206 194 188 214
129 204 212 226 244 278 244 176 168 149 257 188 181 215 164 193 201 199 169 204 214 236 274 274 286 288 288 304 177 224 225 226 232 221 204 198 202 207 208 203 188 190 199 201
165 169 195 122 212 275 162 67 181 206 233 200 192 195 195 216 198 211 217 215 212 234 265 293 308 300 296 259 180 251 242 247 221 204 206 208 202 205 201 195 196 187 187 197
224 190 183 188 205 246 212 210 224 191 178 207 189 206 203 201 216 212 221 223 220 224 249 247 251 294 294 270 206 257 259 231 223 212 215 215 213 211 202 190 198 193 193 200
242 163 222 106 208 237 222 249 244 202 227 226 224 199 183 201 212 224 228 233 230 226 242 229 275 286 287 274 239 228 271 254 229 230 224 213 207 208 202 206 200 198 192 204
181 152 183 258 280 303 255 234 236 230 225 238 230 206 208 201 219 216 226 237 237 239 240 228 247 270 279 301 290 268 257 220 232 236 230 222 220 218 209 212 203 207 212 200
181 186 197 239 204 227 249 237 211 221 226 226 218 224 225 193 219 200 229 231 232 250 287 293 283 274 282 292 284 294 270 226 227 232 226 222 219 212 217 208 225 230 223 214